This is the latest recevied weather packets stored in our database for station/object DJ3AN. If no packets are shown the sender has not sent any weather packets the latest 10 day(s).
| Time | Temp. | Humidity | Pressure | Rain* | Wind** | Luminosity | Snow |
|---|---|---|---|---|---|---|---|
| 1777768506 | 15.56° C | 93% | 1012.1 hPa | 0 mm | - | - | - |
| 1777768206 | 15.56° C | 94% | 1012.3 hPa | 0 mm | - | - | - |
| 1777767906 | 15.56° C | 93% | 1012.4 hPa | 0 mm | - | - | - |
| 1777767606 | 15.56° C | 93% | 1012.6 hPa | 0.25 mm | - | - | - |
| 1777767306 | 15.56° C | 93% | 1012.9 hPa | 0.25 mm | - | - | - |
| 1777767006 | 15.56° C | 93% | 1012.9 hPa | 0.25 mm | - | - | - |
| 1777766706 | 15.56° C | 93% | 1012.9 hPa | 0.25 mm | - | - | - |
| 1777766406 | 15.56° C | 92% | 1012.7 hPa | 0.51 mm | - | - | - |
| 1777766106 | 15.56° C | 92% | 1012.9 hPa | 0.51 mm | - | - | - |
| 1777765807 | 15.56° C | 92% | 1013 hPa | 0.51 mm | - | - | - |
| 1777765506 | 15.56° C | 92% | 1013.2 hPa | 0.51 mm | - | - | - |
| 1777765206 | 15.56° C | 92% | 1013.2 hPa | 0.51 mm | - | - | - |
| 1777764906 | 15.56° C | 92% | 1013.3 hPa | 0.51 mm | - | - | - |
| 1777764606 | 15.56° C | 91% | 1013.3 hPa | 0.76 mm | - | - | - |
| 1777764306 | 15.56° C | 91% | 1013.4 hPa | 1.02 mm | - | - | - |
| 1777764006 | 15.56° C | 91% | 1013.5 hPa | 2.03 mm | - | - | - |
| 1777763706 | 15.56° C | 90% | 1013.7 hPa | 3.05 mm | - | - | - |
| 1777763406 | 15.56° C | 90% | 1013.8 hPa | 3.05 mm | - | - | - |
| 1777763106 | 15.56° C | 90% | 1014 hPa | 3.05 mm | - | - | - |
| 1777762806 | 15.56° C | 90% | 1014.1 hPa | 2.79 mm | - | - | - |
| 1777762506 | 15.56° C | 89% | 1014.4 hPa | 2.79 mm | - | - | - |
| 1777762207 | 15.56° C | 89% | 1014.5 hPa | 2.79 mm | - | - | - |
| 1777761906 | 15.56° C | 89% | 1014.6 hPa | 2.79 mm | - | - | - |
| 1777761606 | 15.56° C | 89% | 1014.7 hPa | 2.79 mm | - | - | - |
| 1777761306 | 15.56° C | 89% | 1014.9 hPa | 2.79 mm | - | - | - |
* Rain latest hour (hover to see other rain measurements)
** Current wind speed in m/s (hover to see current wind gust speed)